Location: Mentone
(34.5413°N, 85.5351°W)
Time: 12:30:13
(UTC-05:00)

UOSAT-12 - Visible Passes

Search period start: 30 October 2014 00:00
Search period end: 08 November 2014 23:00
Orbit: 594 x 664 km, 64.6° (Epoch: 29 October)

Date Brightness Start Highest point End Pass type
(mag) Time Alt. Az. Time Alt. Az. Time Alt. Az.
06 Nov 9.1 18:11:04 10° N 18:12:24 14° NNE 18:12:24 14° NNE visible
07 Nov 8.6 18:30:36 10° NNW 18:32:57 25° N 18:32:57 25° N visible
08 Nov 9.2 17:14:03 10° NE 17:14:36 10° NE 17:15:09 10° NE visible
08 Nov 8.2 18:50:45 10° NNW 18:53:43 39° NNW 18:53:43 39° NNW visible
